User: anonymous   Login
Location: STAR School
(35.3054°N, 111.2976°W)
Time: 11:37:13
(UTC-07:00)
Language:

PCSat - Orbit

View from above orbital plane
View from above orbital plane
View from above satellite
View from above satellite

Ground track
Ground track

The orbit data is extracted from the following two-line orbital elements,

1 26931U 01043C   19167.89265693 -.00000032 +00000-0 +19457-4 0  9997
2 26931 067.0517 008.3232 0006635 279.1525 080.8826 14.30544694924645
Epoch (UTC): 16 June 2019 21:25:25
Eccentricity: 0.0006635
inclination: 67.0517°
perigee height: 785 km
apogee height: 794 km
right ascension of ascending node: 8.3232°
argument of perigee: 279.1525°
revolutions per day: 14.30544694
mean anomaly at epoch: 80.8826°
orbit number at epoch: 92464

The dashed part of the orbit path shows where the satellite is in the earth's shadow,  

DLR